DELTA 1 DEB, 40766

Orbit data source: Space-Track

DELTA 1 DEB, 40766 is space debris in SSO originally from a launch on Thu, 29 Jul 1976 UTC launched from the Air Force Western Test Range (AFWTR). Debris objects in space refer to the collection of defunct objects orbiting the Earth. Examples of debris include non-operational satellites, rocket bodies, and fragments generated from explosions, collisions, or faulty payload assembly.

Loading next visibility...
Identifier
40766, 1976-077GK
Orbit
SSO
Last TLE update
2 days ago
Origin
Manufacturer
Unknown
Mission
Spacecraft
Bus & Motor
Unknown
Mass
Unknown
Launch date (UTC)
1976-07-29 (49 years ago)
Launch vehicle
Unknown
Launch site
Air Force Western Test Range (AFWTR)
Object type
Payload
Rocket body
Debris
Shape & HBR
Unknown
Radar Cross Section
Small (<0.1 m²)

Expand to show TLE details & history

TLE from 2 days ago
0 DELTA 1 DEB
1 40766U 76077GK  25182.24229201 -.00000007  00000-0  32415-3 0  9996
2 40766 102.1598  89.2049 0102370 114.7047  37.6158 12.23227628 78101
Epoch: 2025-07-01T05:48Z
TLE epoch observation values (Epoch: 2025-07-01T05:48:54.029Z)
Latitude
26.33903°
Longitude
-91.46708°
Altitude
1,517.161 km
Speed
7.137 km/s
True Right ascension
18h 21m 11s
True Declination
26° 12' 56"
Sunlit
Object was in full shadow at epoch
Visualization orbit readout
Latitude
-77.88553°
Longitude
176.85288°
Altitude
1,681.736 km
Speed
7 km/s
Apparent Right ascension
06h 39m 34s
Apparent Declination
-68° 08' 38"
Sunlit
Object is in daylight
Visualization observer readout
Local Sidereal Time
17:19:04
Azimuth
194.721° SSW
Elevation
-59.727°
Doppler factor
1
Orbital elements
Apogee altitude
1,657.548 km
Perigee altitude
1,494.692 km
Semi-major axis
7,954.257 km
Eccentricity
0.01024
Inclination
102.1598°
RAAN
89.2049°
Arg. of periapsis
114.7047°
True anomaly
Unknown
Mean anomaly
37.6158°
Eccentric anomaly
Unknown
Mean motion
3.05945 °/min
Orbital period
117.67 mins
BSTAR
0.00032415
Loading maneuver chart data...
Loading SW <> Apogee altitude chart data...
Loading historical data...
Loading historical data...
Loading historical data...
Loading historical data...
Loading historical data...
Loading historical data...
Loading historical data...

DELTA 1 DEB Visibility forecast

Observer location: undefined°, undefined°

Span
Click to sort rows by Start time (UTC) header in descending order
Start Az.
Max El. time (UTC)
Max El. Az.
Max El.
End time (UTC)
End Az.
16 mins2025-07-03 06:40:32.578Z20.281° NNE2025-07-03 06:48:32.578Z85.813° E44.367°2025-07-03 06:56:32.578Z193.74° SSW
11 mins2025-07-03 08:38:32.578Z348.256° N2025-07-03 08:43:32.578Z305.198° NW22.771°2025-07-03 08:49:32.578Z258.339° W
12 mins2025-07-03 16:02:32.578Z106.103° ESE2025-07-03 16:08:32.578Z54.204° ENE26.725°2025-07-03 16:14:32.578Z4.03° NNE
16 mins2025-07-03 17:55:32.578Z174.371° S2025-07-03 18:03:32.578Z266.846° W42.408°2025-07-03 18:11:32.578Z336.546° NNW
|